CW8371 Weather Reports


time (UTC)temp
C
wind
direction
speed
KPH
gust
KPH
rain 1hr
cm
rain 24hr
cm
rain mn
cm
humidity
%
barometer
mb
20260504223504 22 211 8.0 16.1 0.00 0.00 0.00 35 1005.7
20260504223004 22 206 8.0 17.7 0.00 0.00 0.00 35 1005.6
20260504222504 22 208 8.0 19.3 0.00 0.00 0.00 33 1005.5
20260504222024 22 207 9.7 22.5 0.00 0.00 0.00 34 1005.5
20260504221504 22 221 9.7 22.5 0.00 0.00 0.00 33 1005.6
20260504221003 22 246 8.0 25.7 0.00 0.00 0.00 34 1005.5
20260504220504 22 232 8.0 25.7 0.00 0.00 0.00 36 1005.5
20260504220004 22 224 8.0 20.9 0.00 0.00 0.00 33 1005.5
20260504215504 22 240 8.0 22.5 0.00 0.00 0.00 34 1005.4
20260504215004 22 246 9.7 32.2 0.00 0.00 0.00 34 1005.7
20260504214504 22 250 9.7 32.2 0.00 0.00 0.00 33 1005.5
20260504214004 22 257 11.3 32.2 0.00 0.00 0.00 33 1005.6
20260504213504 22 262 11.3 32.2 0.00 0.00 0.00 33 1005.5
20260504213003 22 265 11.3 25.7 0.00 0.00 0.00 33 1005.5
20260504212503 22 256 11.3 32.2 0.00 0.00 0.00 34 1005.6
20260504212004 22 231 11.3 32.2 0.00 0.00 0.00 32 1005.7
20260504211525 22 240 11.3 35.4 0.00 0.00 0.00 32 1005.6
20260504211004 22 268 11.3 35.4 0.00 0.00 0.00 32 1005.6
20260504210504 22 260 12.9 32.2 0.00 0.00 0.00 33 1005.6
20260504210024 22 250 9.7 32.2 0.00 0.00 0.00 32 1005.8
20260504205525 22 252 9.7 30.6 0.00 0.00 0.00 33 1005.7
20260504205003 22 263 11.3 25.7 0.00 0.00 0.00 31 1005.6
20260504204503 22 251 11.3 24.1 0.00 0.00 0.00 31 1005.6
20260504204004 22 245 12.9 27.4 0.00 0.00 0.00 32 1005.7
20260504203524 22 262 12.9 32.2 0.00 0.00 0.00 34 1005.6
20260504203003 22 267 11.3 32.2 0.00 0.00 0.00 32 1005.6
20260504202504 22 252 11.3 27.4 0.00 0.00 0.00 32 1005.5
20260504202025 22 243 11.3 27.4 0.00 0.00 0.00 31 1005.7
20260504201504 22 261 14.5 30.6 0.00 0.00 0.00 32 1005.7
20260504201003 22 256 12.9 32.2 0.00 0.00 0.00 30 1005.6
20260504200503 22 249 8.0 32.2 0.00 0.00 0.00 31 1005.6
20260504200004 22 255 9.7 20.9 0.00 0.00 0.00 31 1005.4
20260504195503 22 224 11.3 25.7 0.00 0.00 0.00 32 1005.6
20260504195003 22 216 12.9 33.8 0.00 0.00 0.00 34 1005.7
20260504194504 21 232 12.9 33.8 0.00 0.00 0.00 32 1005.7
20260504194003 21 243 12.9 32.2 0.00 0.00 0.00 31 1005.8
20260504193504 22 235 12.9 30.6 0.00 0.00 0.00 32 1005.8
20260504193004 22 233 9.7 27.4 0.00 0.00 0.00 32 1005.7
20260504192503 22 260 9.7 25.7 0.00 0.00 0.00 30 1005.7
20260504192003 22 245 12.9 29.0 0.00 0.00 0.00 29 1005.7
20260504191504 22 222 12.9 29.0 0.00 0.00 0.00 31 1005.9
20260504191004 22 226 11.3 29.0 0.00 0.00 0.00 32 1005.7
20260504190504 22 243 8.0 20.9 0.00 0.00 0.00 32 1005.8
20260504190004 21 252 8.0 22.5 0.00 0.00 0.00 31 1006.0
20260504185504 21 236 9.7 22.5 0.00 0.00 0.00 32 1005.9
20260504185004 21 218 11.3 32.2 0.00 0.00 0.00 32 1006.1
20260504184525 22 230 14.5 32.2 0.00 0.00 0.00 31 1006.0
20260504184004 22 262 16.1 38.6 0.00 0.00 0.00 33 1006.3
20260504183504 21 268 19.3 38.6 0.00 0.00 0.00 31 1006.3
20260504183004 21 262 19.3 41.8 0.00 0.00 0.00 33 1006.3
20260504182504 21 244 16.1 41.8 0.00 0.00 0.00 32 1006.4
20260504182004 21 215 14.5 37.0 0.00 0.00 0.00 31 1006.2
20260504181504 21 205 12.9 37.0 0.00 0.00 0.00 33 1006.3
20260504181004 21 229 11.3 37.0 0.00 0.00 0.00 31 1006.2
20260504180504 21 231 12.9 38.6 0.00 0.00 0.00 33 1006.5
20260504180004 21 213 16.1 38.6 0.00 0.00 0.00 31 1006.5
20260504175504 21 215 11.3 37.0 0.00 0.00 0.00 30 1006.3
20260504175004 21 239 8.0 27.4 0.00 0.00 0.00 34 1006.4
20260504174525 21 252 11.3 32.2 0.00 0.00 0.00 33 1006.4
20260504174004 21 253 14.5 32.2 0.00 0.00 0.00 35 1006.5
20260504173504 20 241 11.3 32.2 0.00 0.00 0.00 34 1006.8
20260504173004 20 225 12.9 40.2 0.00 0.00 0.00 33 1006.7
20260504172525 20 214 16.1 40.2 0.00 0.00 0.00 32 1006.8
20260504172004 20 209 17.7 38.6 0.00 0.00 0.00 33 1006.8
20260504171504 20 232 16.1 35.4 0.00 0.00 0.00 33 1006.9
20260504171003 20 262 17.7 40.2 0.00 0.00 0.00 35 1006.7
20260504170504 20 255 16.1 40.2 0.00 0.00 0.00 33 1007.0
20260504151003 18 224 11.3 25.7 0.00 0.00 0.00 43 1008.0
20260504150503 18 213 11.3 25.7 0.00 0.00 0.00 40 1008.1
20260504141003 17 266 11.3 29.0 0.00 0.00 0.00 42 1008.7
20260504140503 17 264 14.5 29.0 0.00 0.00 0.00 40 1008.7
20260504130503 14 247 11.3 22.5 0.00 0.00 0.00 47 1009.5
20260504110503 8 0 0.0 0.0 0.00 0.08 0.00 66 1009.8
20260504100503 7 0 0.0 0.0 0.00 0.08 0.00 70 1010.0
20260504081524 6 0 0.0 0.0 0.00 0.08 0.00 71 1009.9
20260504081003 6 0 0.0 0.0 0.00 0.08 0.00 69 1010.0
20260504080503 6 0 0.0 0.0 0.00 0.08 0.00 67 1009.9
20260504050524 2 0 0.0 0.0 0.00 0.08 0.00 86 1009.8
20260504050003 2 0 0.0 0.0 0.00 0.08 0.00 87 1009.9
20260504045503 2 0 0.0 0.0 0.00 0.08 0.00 88 1009.8
20260504045003 2 0 0.0 0.0 0.00 0.08 0.00 87 1009.9
20260504044504 1 0 0.0 0.0 0.00 0.08 0.00 87 1010.0
20260504044003 1 0 0.0 0.0 0.00 0.08 0.00 87 1010.0
20260504043503 1 0 0.0 0.0 0.00 0.08 0.00 86 1009.9
20260504043003 1 0 0.0 0.0 0.00 0.08 0.00 86 1009.9
20260504042503 1 0 0.0 0.0 0.00 0.08 0.00 85 1009.9
20260504042004 2 0 0.0 0.0 0.00 0.08 0.00 85 1009.8
20260504041503 2 0 0.0 0.0 0.00 0.08 0.00 85 1009.8
20260504041003 2 0 0.0 0.0 0.00 0.08 0.00 84 1009.8
20260504040504 2 0 0.0 0.0 0.00 0.08 0.00 84 1009.8
20260504040004 2 0 0.0 0.0 0.00 0.08 0.00 84 1009.8
20260504035524 2 0 0.0 0.0 0.00 0.08 0.08 84 1009.8
20260504035003 2 0 0.0 0.0 0.00 0.08 0.08 84 1009.7
20260504034503 2 0 0.0 0.0 0.00 0.08 0.08 84 1009.6
20260504034003 2 0 0.0 0.0 0.00 0.08 0.08 84 1009.5
20260504033504 2 0 0.0 0.0 0.00 0.08 0.08 83 1009.5
20260504033004 2 0 0.0 0.0 0.00 0.08 0.08 83 1009.6
20260504032503 2 0 0.0 0.0 0.00 0.08 0.08 83 1009.5
20260504032003 2 0 0.0 0.0 0.00 0.08 0.08 82 1009.6
20260504031503 2 0 0.0 0.0 0.00 0.08 0.08 82 1009.6
20260504031003 2 0 0.0 0.0 0.00 0.08 0.08 82 1009.5
20260504030503 2 0 0.0 0.0 0.00 0.08 0.08 82 1009.6
20260504030003 2 0 0.0 0.0 0.00 0.08 0.08 81 1009.5
20260504025503 3 0 0.0 0.0 0.00 0.08 0.08 80 1009.6
20260504025003 3 0 0.0 0.0 0.00 0.08 0.08 80 1009.5
20260504024503 3 0 0.0 0.0 0.00 0.08 0.08 80 1009.5
20260504024003 3 0 0.0 0.0 0.00 0.08 0.08 79 1009.4
20260504023503 3 0 0.0 0.0 0.00 0.08 0.08 79 1009.4
20260504023003 3 0 0.0 0.0 0.00 0.08 0.08 78 1009.4
20260504022503 3 0 0.0 0.0 0.00 0.08 0.08 77 1009.4
20260504022024 3 0 0.0 0.0 0.00 0.08 0.08 76 1009.5
20260504021503 3 0 0.0 0.0 0.00 0.08 0.08 75 1009.5
20260504021003 4 0 0.0 0.0 0.00 0.08 0.08 74 1009.4
20260504020503 4 0 0.0 0.0 0.00 0.08 0.08 73 1009.3
20260504020003 4 0 0.0 0.0 0.00 0.08 0.08 73 1009.2
20260504015524 4 0 0.0 0.0 0.00 0.08 0.08 73 1009.2
20260504015003 4 0 0.0 0.0 0.00 0.08 0.08 73 1009.2
20260504014524 5 0 0.0 0.0 0.00 0.08 0.08 73 1009.2
20260504014003 5 0 0.0 0.0 0.00 0.08 0.08 71 1009.1
20260504013503 5 0 0.0 0.0 0.00 0.08 0.08 70 1009.1
20260504013003 5 0 0.0 0.0 0.00 0.08 0.08 70 1009.0
20260504012504 5 0 0.0 0.0 0.00 0.08 0.08 69 1009.0
20260504012003 5 0 0.0 0.0 0.00 0.08 0.08 69 1009.0
20260504011503 6 0 0.0 0.0 0.00 0.08 0.08 68 1009.0
20260504011024 6 0 0.0 0.0 0.00 0.08 0.08 68 1009.0
20260504010503 6 0 0.0 0.0 0.00 0.08 0.08 67 1008.8
20260504010003 6 0 0.0 0.0 0.00 0.08 0.08 66 1008.8
20260504005524 6 0 0.0 0.0 0.00 0.08 0.08 65 1008.8
20260504005004 6 0 0.0 0.0 0.00 0.08 0.08 63 1008.8
20260504004503 7 0 0.0 0.0 0.00 0.08 0.08 64 1008.6
20260504004003 7 0 0.0 0.0 0.00 0.08 0.08 62 1008.5
20260504003524 7 0 0.0 0.0 0.00 0.08 0.08 61 1008.4
20260504003003 8 0 0.0 0.0 0.00 0.08 0.08 58 1008.5
20260504002504 8 0 0.0 0.0 0.00 0.08 0.08 58 1008.4
20260504002025 8 0 0.0 0.0 0.00 0.08 0.08 56 1008.2
20260504001504 8 0 0.0 0.0 0.00 0.08 0.08 55 1008.3
20260504001004 9 0 0.0 0.0 0.00 0.08 0.08 53 1008.1
20260504000504 9 0 0.0 0.0 0.00 0.08 0.08 51 1008.2
20260504000004 10 0 0.0 0.0 0.00 0.08 0.08 50 1008.1
20260503235504 10 296 0.0 1.6 0.00 0.08 0.08 48 1008.1
20260503235003 10 296 0.0 1.6 0.00 0.08 0.08 47 1008.2
20260503234504 10 294 1.6 14.5 0.00 0.08 0.08 46 1008.0
20260503234004 10 293 3.2 14.5 0.00 0.08 0.08 46 1007.9
20260503233525 10 293 4.8 16.1 0.00 0.08 0.08 46 1008.0
20260503233004 11 293 4.8 16.1 0.00 0.08 0.08 45 1007.9
20260503232503 11 293 4.8 19.3 0.00 0.08 0.08 44 1007.9
20260503232003 11 291 4.8 19.3 0.00 0.08 0.08 44 1007.8
20260503231504 11 292 4.8 20.9 0.00 0.08 0.08 44 1007.8
20260503231024 11 296 6.4 20.9 0.00 0.08 0.08 44 1007.7
20260503230503 11 293 6.4 17.7 0.00 0.08 0.08 41 1007.7
20260503230004 11 286 8.0 29.0 0.00 0.08 0.08 44 1007.6
20260503225504 11 292 9.7 29.0 0.00 0.08 0.08 43 1007.4
20260503225003 11 301 11.3 30.6 0.00 0.08 0.08 42 1007.5
20260503224503 11 302 11.3 30.6 0.00 0.08 0.08 41 1007.3
20260503224003 11 300 12.9 29.0 0.00 0.08 0.08 41 1007.2